Terminal Aerodrome Forecast
Issued by NWS Cleveland, OH

Home | Current Version | Previous Version | Text Only | Print | Product List | Glossary On
Versions: 1 2 3 4 5 6 7 8 9 10 11 12 13 14 15 16 17
008
FTUS41 KCLE 082007 AAB
TAFERI
TAF AMD
KERI 082007Z 0820/0918 18012KT P6SM SCT030 OVC035
     FM082200 19008KT 6SM -RA SCT015 OVC025
     FM090000 19006KT 4SM -RASN BR OVC015
     FM090300 21006KT 4SM BR SCT006 OVC012
     FM090800 23009KT 3SM -SN BR OVC006
     FM091500 24009KT 5SM -SHSN OVC012=

USA.gov is the U.S. government's official web portal to all federal, state and local government web resources and services.